| time (UTC) | temp F | wind direction | speed MPH | gust MPH | rain 1hr in | rain 24hr in | rain mn in | humidity % | barometer mb |
| 20260510153022 | 75 | 105 | 3.0 | 7.0 | 0.00 | 1.24 | 0.00 | 87 | 1016.7 |
| 20260510151527 | 73 | 158 | 2.0 | 7.0 | 0.00 | 1.32 | 0.00 | 92 | 1016.7 |
| 20260510150012 | 72 | 78 | 3.0 | 6.0 | 0.00 | 1.45 | 0.00 | 94 | 1017.0 |
| 20260510144520 | 71 | 91 | 2.0 | 6.0 | 0.00 | 1.55 | 0.00 | 94 | 1017.0 |
| 20260510143024 | 71 | 117 | 4.0 | 6.0 | 0.00 | 1.65 | 0.00 | 95 | 1017.0 |
| 20260510141525 | 70 | 74 | 3.0 | 5.0 | 0.00 | 1.69 | 0.00 | 96 | 1017.1 |
| 20260510140009 | 69 | 71 | 2.0 | 6.0 | 0.00 | 1.71 | 0.00 | 97 | 1017.0 |
| 20260510134514 | 68 | 103 | 3.0 | 8.0 | 0.00 | 1.77 | 0.00 | 97 | 1016.7 |
| 20260510133018 | 68 | 99 | 3.0 | 5.0 | 0.00 | 1.83 | 0.00 | 98 | 1016.6 |
| 20260510131524 | 67 | 44 | 2.0 | 4.0 | 0.00 | 2.05 | 0.00 | 98 | 1016.4 |
| 20260510130008 | 66 | 71 | 3.0 | 6.0 | 0.00 | 2.39 | 0.00 | 98 | 1016.4 |
| 20260510124512 | 66 | 99 | 1.0 | 3.0 | 0.00 | 3.18 | 0.00 | 98 | 1016.2 |
| 20260510123016 | 66 | 94 | 1.0 | 4.0 | 0.00 | 3.18 | 0.00 | 98 | 1016.2 |
| 20260510121522 | 65 | 116 | 1.0 | 4.0 | 0.00 | 3.18 | 0.00 | 98 | 1016.0 |
| 20260510120026 | 65 | 108 | 2.0 | 5.0 | 0.00 | 3.18 | 0.00 | 98 | 1015.6 |
| 20260510114511 | 65 | 46 | 2.0 | 5.0 | 0.00 | 3.18 | 0.00 | 98 | 1015.2 |
| 20260510113013 | 65 | 87 | 3.0 | 5.0 | 0.00 | 3.18 | 0.00 | 98 | 1015.0 |
| 20260510111522 | 65 | 90 | 3.0 | 5.0 | 0.00 | 3.18 | 0.00 | 98 | 1014.5 |
| 20260510110033 | 65 | 101 | 1.0 | 2.0 | 0.00 | 3.18 | 0.00 | 98 | 1014.4 |
| 20260510104528 | 65 | 78 | 0.0 | 3.0 | 0.00 | 3.18 | 0.00 | 98 | 1014.1 |
| 20260510103010 | 65 | 53 | 1.0 | 4.0 | 0.00 | 3.18 | 0.00 | 98 | 1013.7 |
| 20260510101516 | 65 | 115 | 2.0 | 3.0 | 0.00 | 3.18 | 0.00 | 98 | 1013.5 |
| 20260510100030 | 65 | 80 | 0.0 | 3.0 | 0.00 | 3.18 | 0.00 | 98 | 1013.6 |
| 20260510094532 | 65 | 38 | 1.0 | 2.0 | 0.00 | 3.18 | 0.00 | 98 | 1013.5 |
| 20260510093026 | 65 | 355 | 1.0 | 5.0 | 0.00 | 3.19 | 0.00 | 98 | 1013.4 |
| 20260510091513 | 65 | 27 | 2.0 | 5.0 | 0.00 | 3.28 | 0.00 | 98 | 1013.4 |
| 20260510090020 | 65 | 333 | 2.0 | 6.0 | 0.00 | 4.19 | 0.00 | 98 | 1013.4 |
| 20260510084526 | 65 | 64 | 1.0 | 3.0 | 0.00 | 4.62 | 0.00 | 98 | 1013.3 |
| 20260510083026 | 66 | 102 | 0.0 | 3.0 | 0.00 | 4.62 | 0.00 | 98 | 1013.1 |
| 20260510081526 | 66 | 124 | 0.0 | 0.0 | 0.00 | 4.62 | 0.00 | 98 | 1013.0 |
| 20260510080017 | 66 | 110 | 0.0 | 0.0 | 0.00 | 4.62 | 0.00 | 98 | 1013.1 |
| 20260510074527 | 66 | 32 | 1.0 | 2.0 | 0.00 | 4.62 | 0.00 | 98 | 1013.1 |
| 20260510073025 | 66 | 75 | 2.0 | 3.0 | 0.00 | 4.62 | 0.00 | 98 | 1012.9 |
| 20260510071528 | 66 | 65 | 1.0 | 5.0 | 0.00 | 4.62 | 0.00 | 98 | 1012.9 |
| 20260510070033 | 66 | 349 | 4.0 | 5.0 | 0.00 | 4.62 | 0.00 | 98 | 1013.1 |
| 20260510064514 | 66 | 27 | 2.0 | 5.0 | 0.00 | 4.62 | 0.00 | 98 | 1013.0 |
| 20260510063024 | 67 | 45 | 0.0 | 2.0 | 0.00 | 4.62 | 0.00 | 98 | 1013.1 |
| 20260510061528 | 67 | 89 | 1.0 | 2.0 | 0.00 | 4.62 | 0.00 | 98 | 1013.1 |
| 20260510060032 | 67 | 114 | 0.0 | 3.0 | 0.00 | 4.62 | 0.00 | 98 | 1013.3 |
| 20260510054531 | 67 | 89 | 2.0 | 3.0 | 0.00 | 4.66 | 0.00 | 98 | 1013.0 |
| 20260510053019 | 67 | 32 | 0.0 | 2.0 | 0.00 | 4.67 | 0.00 | 98 | 1013.1 |
| 20260510051523 | 67 | 358 | 0.0 | 1.0 | 0.00 | 4.67 | 0.00 | 98 | 1013.3 |
| 20260510050028 | 67 | 357 | 1.0 | 2.0 | 0.00 | 4.67 | 0.00 | 98 | 1013.2 |
| 20260510044530 | 67 | 123 | 1.0 | 3.0 | 0.00 | 4.67 | 4.67 | 98 | 1013.1 |
| 20260510043030 | 67 | 150 | 1.0 | 2.0 | 0.00 | 4.67 | 4.67 | 98 | 1013.3 |
| 20260510041521 | 67 | 115 | 0.0 | 3.0 | 0.00 | 4.67 | 4.67 | 98 | 1013.1 |
| 20260510040004 | 68 | 119 | 2.0 | 2.0 | 0.00 | 4.67 | 4.67 | 98 | 1013.3 |
| 20260510034508 | 68 | 346 | 0.0 | 4.0 | 0.00 | 4.67 | 4.67 | 98 | 1013.7 |
| 20260510033013 | 68 | 354 | 1.0 | 2.0 | 0.00 | 4.67 | 4.67 | 98 | 1013.8 |
| 20260510031526 | 68 | 23 | 1.0 | 3.0 | 0.00 | 4.67 | 4.67 | 98 | 1013.6 |
| 20260510030023 | 68 | 131 | 1.0 | 2.0 | 0.00 | 4.67 | 4.67 | 98 | 1013.4 |
| 20260510024504 | 68 | 300 | 0.0 | 1.0 | 0.00 | 4.67 | 4.67 | 98 | 1013.6 |
| 20260510023010 | 68 | 323 | 3.0 | 5.0 | 0.02 | 4.67 | 4.67 | 98 | 1013.6 |
| 20260510021522 | 68 | 175 | 1.0 | 3.0 | 0.05 | 4.67 | 4.67 | 98 | 1013.0 |
| 20260510020025 | 68 | 158 | 1.0 | 2.0 | 0.05 | 4.67 | 4.67 | 98 | 1012.4 |
| 20260510014524 | 68 | 148 | 0.0 | 6.0 | 0.05 | 4.67 | 4.67 | 98 | 1012.1 |
| 20260510013007 | 68 | 128 | 3.0 | 5.0 | 0.04 | 4.66 | 4.66 | 98 | 1012.4 |
| 20260510011510 | 68 | 318 | 2.0 | 5.0 | 0.01 | 4.63 | 4.63 | 98 | 1013.1 |
| 20260510010014 | 68 | 157 | 0.0 | 3.0 | 0.01 | 4.63 | 4.63 | 98 | 1012.5 |
| 20260510004519 | 68 | 148 | 1.0 | 2.0 | 0.02 | 4.63 | 4.63 | 98 | 1012.5 |
| 20260510003026 | 68 | 122 | 0.0 | 3.0 | 0.05 | 4.62 | 4.62 | 97 | 1012.4 |
| 20260510001518 | 68 | 123 | 0.0 | 5.0 | 0.05 | 4.66 | 4.62 | 97 | 1012.4 |
| 20260510000015 | 68 | 91 | 1.0 | 2.0 | 0.05 | 4.67 | 4.62 | 97 | 1012.6 |
| 20260509234517 | 68 | 117 | 1.0 | 1.0 | 0.05 | 4.67 | 4.61 | 97 | 1012.9 |
| 20260509233022 | 68 | 165 | 0.0 | 1.0 | 0.01 | 4.64 | 4.57 | 97 | 1013.0 |
| 20260509231525 | 68 | 312 | 1.0 | 1.0 | 0.01 | 4.65 | 4.57 | 97 | 1013.0 |
| 20260509230008 | 68 | 311 | 2.0 | 3.0 | 0.03 | 4.67 | 4.57 | 97 | 1012.8 |
| 20260509224518 | 68 | 102 | 0.0 | 2.0 | 0.02 | 4.69 | 4.56 | 97 | 1011.7 |
| 20260509223022 | 67 | 137 | 1.0 | 4.0 | 0.02 | 4.69 | 4.56 | 97 | 1011.5 |
| 20260509221526 | 67 | 75 | 1.0 | 4.0 | 0.02 | 4.69 | 4.56 | 97 | 1012.0 |
| 20260509220027 | 68 | 224 | 0.0 | 3.0 | 0.00 | 4.69 | 4.54 | 97 | 1012.5 |
| 20260509214513 | 68 | 218 | 1.0 | 3.0 | 0.00 | 4.69 | 4.54 | 97 | 1012.4 |
| 20260509213016 | 67 | 289 | 1.0 | 3.0 | 0.01 | 4.73 | 4.54 | 97 | 1011.6 |
| 20260509211526 | 67 | 147 | 1.0 | 5.0 | 0.02 | 4.79 | 4.54 | 97 | 1010.8 |
| 20260509210028 | 67 | 148 | 2.0 | 5.0 | 0.04 | 4.80 | 4.54 | 97 | 1010.9 |
| 20260509204518 | 67 | 101 | 4.0 | 7.0 | 0.07 | 4.82 | 4.54 | 97 | 1011.0 |
| 20260509203015 | 67 | 250 | 0.0 | 2.0 | 0.11 | 4.84 | 4.53 | 97 | 1012.3 |
| 20260509201520 | 67 | 287 | 2.0 | 4.0 | 0.17 | 4.94 | 4.52 | 97 | 1012.8 |
| 20260509200022 | 67 | 141 | 0.0 | 4.0 | 0.21 | 4.98 | 4.50 | 97 | 1012.3 |
| 20260509194536 | 67 | 150 | 1.0 | 4.0 | 0.28 | 4.98 | 4.46 | 98 | 1012.4 |
| 20260509193010 | 67 | 142 | 2.0 | 5.0 | 0.28 | 4.94 | 4.42 | 98 | 1012.9 |
| 20260509191518 | 67 | 201 | 0.0 | 2.0 | 0.26 | 4.87 | 4.35 | 98 | 1013.1 |
| 20260509190024 | 67 | 150 | 2.0 | 4.0 | 0.25 | 4.81 | 4.29 | 98 | 1012.7 |
| 20260509184532 | 67 | 134 | 0.0 | 3.0 | 0.18 | 4.71 | 4.19 | 98 | 1013.1 |
| 20260509183031 | 66 | 157 | 1.0 | 6.0 | 0.19 | 4.66 | 4.14 | 98 | 1012.8 |
| 20260509181513 | 66 | 119 | 3.0 | 10.0 | 0.24 | 4.61 | 4.09 | 98 | 1012.5 |
| 20260509180020 | 65 | 123 | 3.0 | 8.0 | 0.34 | 4.56 | 4.04 | 97 | 1012.8 |
| 20260509174524 | 65 | 141 | 2.0 | 5.0 | 0.36 | 4.53 | 4.01 | 97 | 1013.3 |
| 20260509173026 | 65 | 94 | 4.0 | 8.0 | 0.31 | 4.46 | 3.95 | 97 | 1013.2 |
| 20260509171526 | 65 | 143 | 6.0 | 10.0 | 0.25 | 4.37 | 3.85 | 97 | 1012.8 |
| 20260509170016 | 64 | 122 | 2.0 | 7.0 | 0.15 | 4.21 | 3.70 | 97 | 1013.6 |
| 20260509164520 | 64 | 97 | 4.0 | 7.0 | 0.15 | 4.17 | 3.65 | 97 | 1012.9 |
| 20260509163025 | 64 | 68 | 4.0 | 8.0 | 0.20 | 4.16 | 3.64 | 97 | 1013.3 |
| 20260509161530 | 64 | 48 | 3.0 | 9.0 | 0.24 | 4.12 | 3.60 | 97 | 1013.6 |
| 20260509160012 | 64 | 103 | 3.0 | 6.0 | 0.33 | 4.07 | 3.55 | 97 | 1013.9 |
| 20260509154519 | 64 | 70 | 5.0 | 7.0 | 0.37 | 4.02 | 3.50 | 97 | 1014.1 |